TimeCDT,TemperatureF,Dew PointF,Humidity,Sea Level PressureIn,VisibilityMPH,Wind Direction,Wind SpeedMPH,Gust SpeedMPH,PrecipitationIn,Events,Conditions,WindDirDegrees,DateUTC
12:56 AM,71.1,68.0,90,30.00,7.0,Calm,Calm,-,N/A,,Clear,0,2013-09-08 05:56:00
1:56 AM,70.0,68.0,93,29.97,7.0,Calm,Calm,-,N/A,,Clear,0,2013-09-08 06:56:00
2:56 AM,70.0,66.9,90,29.97,7.0,Calm,Calm,-,N/A,,Clear,0,2013-09-08 07:56:00
3:56 AM,66.9,64.9,93,29.97,6.0,NNE,3.5,-,N/A,,Clear,20,2013-09-08 08:56:00
4:56 AM,68.0,64.9,90,29.97,8.0,Calm,Calm,-,N/A,,Clear,0,2013-09-08 09:56:00
5:56 AM,66.9,64.9,93,29.98,8.0,Calm,Calm,-,N/A,,Clear,0,2013-09-08 10:56:00
6:56 AM,68.0,64.9,90,30.00,7.0,Calm,Calm,-,N/A,,Clear,0,2013-09-08 11:56:00
7:56 AM,72.0,68.0,87,30.00,7.0,Calm,Calm,-,N/A,,Clear,0,2013-09-08 12:56:00
8:56 AM,81.0,71.1,72,30.00,10.0,Calm,Calm,-,N/A,,Clear,0,2013-09-08 13:56:00
9:56 AM,84.0,71.1,65,30.00,10.0,Calm,Calm,-,N/A,,Clear,0,2013-09-08 14:56:00
10:56 AM,84.9,68.0,57,30.00,10.0,South,3.5,-,N/A,,Clear,190,2013-09-08 15:56:00
11:56 AM,88.0,64.9,46,30.00,10.0,Calm,Calm,-,N/A,,Partly Cloudy,0,2013-09-08 16:56:00
12:56 PM,89.1,64.9,45,29.99,10.0,ENE,3.5,-,N/A,,Mostly Cloudy,60,2013-09-08 17:56:00
1:56 PM,91.0,64.0,41,29.97,10.0,Calm,Calm,-,N/A,,Mostly Cloudy,0,2013-09-08 18:56:00
2:56 PM,93.0,64.0,38,29.96,10.0,NNE,3.5,-,N/A,,Clear,30,2013-09-08 19:56:00
3:56 PM,88.0,66.9,49,29.95,10.0,Calm,Calm,-,N/A,,Clear,0,2013-09-08 20:56:00
4:56 PM,86.0,73.0,65,29.95,10.0,Calm,Calm,-,N/A,,Partly Cloudy,0,2013-09-08 21:56:00
5:56 PM,89.1,68.0,50,29.94,10.0,Calm,Calm,-,N/A,,Scattered Clouds,0,2013-09-08 22:56:00
6:56 PM,82.0,71.1,69,29.95,10.0,Calm,Calm,-,N/A,,Partly Cloudy,0,2013-09-08 23:56:00
7:56 PM,79.0,73.0,82,29.97,10.0,Calm,Calm,-,N/A,,Clear,0,2013-09-09 00:56:00
9:56 PM,75.0,71.1,87,29.98,9.0,Calm,Calm,-,N/A,,Clear,0,2013-09-09 02:56:00
10:56 PM,73.0,69.1,87,29.98,10.0,Calm,Calm,-,N/A,,Clear,0,2013-09-09 03:56:00
11:56 PM,71.1,68.0,90,29.98,9.0,Calm,Calm,-,N/A,,Clear,0,2013-09-09 04:56:00